Probability
0 0 0 0 0 0 0 0 0 0 0 0 0 0 0 0 0 0 0 0 0 0 0 0 0 0 0 0 0 0 0 0 0 0 0 0 0 0 0 0 0 0 0 0 0 0 0 0 0
0 0 0 0 0 0 0 0 0 0 0 0 0 0 0 0 0 0 0 0 0 0 0 0 0 0 0 0 0 0 0 0 0 0 0 0 0 0 0 0 0 0 0 0 0 0 0 0 0
0 0 0 0 0 0 0 0 0 0 0 0 0 0 0 0 0 0 0 0 0 0 0 0 0 0 0 0 0 0 0 0 0 0 0 0 0 0 0 0 0 0 0 0 0 0 0 0 0
0 0 0 0 0 0 0 0 0 0 0 0 0 0 0 0 0 0 0 0 0 0 0 0 0 0 0 0 0 0 0 0 0 0 0 0 0 0 0 0 0 0 0 0 0 0 0 0 0
0 0 0 0 0 0 0 0 0 0 0 0 0 0 0 0 0 0 0 0 0 0 0 0 0 0 0 0 0 0 0 0 0 0 0 0 0 0 0 0 0 0 0 0 0 0 0 0 0
0 0 0 0 0 0 0 0 0 0 0 0 0 0 0 0 0 0 0 0 0 0 0 0 0 0 0 0 0 0 0 0 0 0 0 0 0 0 0 0 0 0 0 0 0 0 0 0 0
0 0 0 0 0 0 0 0 0 0 0 0 0 0 0 0 0 0 0 0 0 0 0 0 0 0 0 0 0 0 0 0 0 0 0 0 0 0 0 0 0 0 0 0 0 0 0 0 0
0 0 0 0 0 0 0 0 0 0 0 0 0 0 0 0 0 0 0 0 0 0 0 0 0 0 0 0 0 0 0 0 0 0 0 0 0 0 0 0 0 0 0 0 0 0 0 0 0
0 0 0 0 0 0 0 0 0 0 0 0 0 0 0 0 0 0 0 0 0 0 0 0 0 0 0 0 0 0 0 0 0 0 0 0 0 0 0 0 0 0 0 0 0 0 0 0 0
0 0 0 0 0 0 0 0 0 0 0 0 0 0 0 0 0 0 0 0 0 0 0 0 0 0 0 0 0 0 0 0 0 0 0 0 0 0 0 0 0 0 0 0 0 0 0 0 0
0 0 0 0 0 0 0 0 0 0 0 0 0 0 0 0 0 0 0 0 0 0 0 0 0 0 0 0 0 0 0 0 0 0 0 0 0 0 0 0 0 0 0 0 0 0 0 0 0
0 0 0 0 0 0 0 0 0 0 0 0 0 0 0 0 0 0 0 0 0 0 0 0 0 0 0 0 0 0 0 0 0 0 0 0 0 0 0 0 0 0 0 0 0 0 0 0 0
0 0 0 0 0 0 0 0 0 0 0 0 0 0 0 0 0 0 0 0 0 0 0 0 0 0 0 0 0 0 0 0 0 0 0 0 0 0 0 0 0 0 0 0 0 0 0 0 0
0 0 0 0 0 0 0 0 0 0 0 0 0 0 0 0 0 0 0 0 0 0 0 0 0 0 0 0 0 0 0 0 0 0 0 0 0 0 0 0 0 0 0 0 0 0 0 0 0
0 0 0 0 0 0 0 0 0 0 0 0 0 0 0 0 0 0 0 0 0 0 0 0 0 0 0 0 0 0 0 0 0 0 0 0 0 0 0 0 0 0 0 0 0 0 0 0 0
0 0 0 0 0 0 0 0 0 0 0 0 0 0 0 0 0 0 0 0 0 0 0 0 0 0 0 0 0 0 0 0 0 0 0 0 0 0 0 0 0 0 0 0 0 0 0 0 0
0 0 0 0 0 0 0 0 0 0 0 0 0 0 0 0 0 0 0 0 0 0 0 0 0 0 0 0 0 0 0 0 0 0 0 0 0 0 0 0 0 0 0 0 0 0 0 0 0
0 0 0 0 0 0 0 0 0 0 0 0 0 0 0 0 0 0 0 0 0 0 0 0 0 0 0 0 0 0 0 0 0 0 0 0 0 0 0 0 0 0 0 0 0 0 0 0 0
0 0 0 0 0 0 0 0 0 0 0 0 0 0 0 0 0 0 0 0 0 0 0 0 0 0 0 0 0 0 0 0 0 0 0 0 0 0 0 0 0 0 0 0 0 0 0 0 0
0 0 0 0 0 0 0 0 0 0 0 0 0 0 0 0 0 0 0 0 0 0 0 0 0 0 0 0 0 0 0 0 0 0 0 0 0 0 0 0 0 0 0 0 0 0 0 0 0
0 0 0 0 0 0 0 0 0 0 0 0 0 0 0 0 0 0 0 0 0 0 0 0 0 0 0 0 0 0 0 0 0 0 0 0 0 0 0 0 0 0 0 0 0 0 0 0 0
0 0 0 0 0 0 0 0 0 0 0 0 0 0 0 0 0 0 0 0 0 0 0 0 0 0 0 0 0 0 0 0 0 0 0 0 0 0 0 0 0 0 0 0 0 0 0 0 0
0 0 0 0 0 0 0 0 0 0 0 0 0 0 0 0 0 0 0 0 0 0 0 0 0 0 0 0 0 0 0 0 0 0 0 0 0 0 0 0 0 0 0 0 0 0 0 0 0
0 0 0 0 0 0 0 0 0 0 0 0 0 0 0 0 0 0 0 0 0 0 0 0 0 0 0 0 0 0 0 0 0 0 0 0 0 0 0 0 0 0 0 0 0 0 0 0 0
0 0 0 0 0 0 0 0 0 0 0 0 0 0 0 0 0 0 0 0 0 0 0 0 0 0 0 0 0 0 0 0 0 0 0 0 0 0 0 0 0 0 0 0 0 0 0 0 0
0 0 0 0 0 0 0 0 0 0 0 0 0 0 0 0 0 0 0 0 0 0 0 0 0 0 0 0 0 0 0 0 0 0 0 0 0 0 0 0 0 0 0 0 0 0 0 0 0
0 0 0 0 0 0 0 0 0 0 0 0 0 0 0 0 0 0 0 0 0 0 0 0 0 0 0 0 0 0 0 0 0 0 0 0 0 0 0 0 0 0 0 0 0 0 0 0 0
0 0 0 0 0 0 0 0 0 0 0 0 0 0 0 0 0 0 0 0 0 0 0 0 0 0 0 0 0 0 0 0 0 0 0 0 0 0 0 0 0 0 0 0 0 0 0 0 0
0 0 0 0 0 0 0 0 0 0 0 0 0 0 0 0 0 0 0 0 0 0 0 0 0 0 0 0 0 0 0 0 0 0 0 0 0 0 0 0 0 0 0 0 0 0 0 0 0
0 0 0 0 0 0 0 0 0 0 0 0 0 0 0 0 0 0 0 0 0 0 0 0 0 0 0 0 0 0 0 0 0 0 0 0 0 0 0 0 0 0 0 0 0 0 0 0 0
Wind_Speed
8 10 7 2 3 5 7 2 3 4 3 4 4 3 5 5 3 4 6 9 13 14 15 15 18 16 15 13 12 11 11 10 10 10 10 10 11 11 11 12 12 13 13 14 14 15 16 16 17
8 8 4 3 4 6 3 4 5 8 7 4 3 1 3 3 7 10 7 9 14 14 14 13 18 17 15 14 13 12 11 10 10 10 10 9 10 10 10 11 11 12 12 13 13 14 14 15 16
8 7 4 4 7 7 2 6 8 8 5 3 3 2 3 5 10 10 8 12 13 12 13 15 20 18 16 15 14 12 11 10 10 9 9 9 9 9 9 10 10 10 11 11 12 13 13 14 15
5 3 4 5 10 6 2 5 7 7 4 2 3 3 3 6 6 10 12 12 12 11 12 15 20 18 17 15 14 13 12 11 10 9 9 8 8 8 8 8 9 9 9 10 11 11 12 13 13
3 4 5 7 11 6 2 6 4 2 6 7 5 4 6 5 9 14 12 11 12 11 12 14 19 19 17 16 15 14 12 11 10 9 9 8 8 7 7 7 7 7 8 9 9 10 11 11 12
4 4 6 7 9 3 2 7 5 3 5 6 7 5 4 6 10 13 11 10 10 10 12 14 19 19 18 17 15 14 13 12 11 10 9 8 7 7 6 6 6 6 6 7 7 8 9 10 11
3 4 7 10 10 7 3 6 2 2 5 4 8 3 6 7 9 12 11 8 9 10 11 12 10 13 17 17 16 15 14 13 12 10 9 8 7 6 5 5 5 4 4 5 6 6 7 8 9
3 4 8 9 9 7 3 3 2 3 5 1 8 5 3 10 11 11 10 8 8 9 9 12 10 9 8 10 16 16 15 14 13 11 10 9 7 6 5 5 4 3 3 3 3 4 5 5 6
2 3 7 9 7 6 3 1 2 2 4 3 3 1 6 16 13 11 9 8 8 10 8 10 12 11 9 8 13 14 15 14 13 10 11 9 5 5 5 5 5 4 2 1 1 2 3 3 3
3 4 8 7 5 6 7 6 4 4 6 6 6 6 9 13 13 13 13 14 14 13 12 9 11 12 11 10 9 6 7 7 7 6 7 5 5 4 5 8 7 5 4 3 3 4 4 3 1
4 6 7 7 5 5 6 8 7 7 9 10 11 13 15 14 14 15 16 15 15 13 11 11 9 10 10 7 8 6 5 6 6 8 9 6 5 4 4 3 4 4 5 4 5 4 3 2 1
5 8 9 6 3 2 5 7 7 10 12 9 8 5 18 18 18 19 18 15 13 12 14 12 11 9 9 7 6 6 5 6 6 7 10 7 4 4 4 4 5 5 4 4 3 3 4 2 2
7 9 7 4 4 6 8 11 10 15 13 10 10 7 17 18 17 16 15 13 13 15 15 14 12 11 9 8 6 6 6 6 6 6 7 7 5 5 5 4 4 5 4 4 4 4 4 3 3
6 8 10 9 8 6 8 10 8 15 10 11 11 10 13 17 16 14 15 16 16 16 16 15 14 12 10 9 7 6 6 6 6 6 7 8 6 6 5 5 5 5 4 4 5 5 3 3 3
4 7 11 12 10 4 3 9 10 17 11 11 10 11 12 14 15 17 16 16 15 15 16 16 15 13 12 11 9 7 6 7 6 7 8 9 8 7 6 5 5 5 5 5 4 4 3 3 3
5 6 6 3 7 5 1 11 9 8 7 10 10 10 11 14 16 16 15 14 13 12 14 16 15 15 14 11 10 7 7 7 7 7 8 10 10 9 7 6 6 6 5 5 4 4 4 4 4
6 5 8 6 5 6 6 13 13 9 12 12 10 10 10 12 16 17 16 15 14 13 13 14 14 15 14 12 9 8 7 8 7 7 8 10 11 11 8 7 6 7 5 5 6 5 5 5 5
7 9 9 10 6 5 8 15 19 12 11 10 8 6 7 8 10 14 16 15 14 12 12 13 13 13 12 10 8 7 8 8 7 8 9 11 11 12 10 7 8 8 6 6 6 6 6 5 4
7 8 12 12 6 4 10 17 19 15 7 5 5 5 4 4 5 6 13 13 12 12 11 13 14 14 12 11 11 11 11 8 7 8 11 12 12 13 12 9 9 9 9 9 9 7 7 6 4
7 10 12 10 7 10 13 16 16 8 1 2 4 6 6 7 6 2 7 10 11 12 11 12 13 14 13 11 9 7 7 6 7 7 10 12 13 14 14 13 10 11 9 11 11 9 6 6 7
8 8 7 8 10 9 7 10 4 3 6 7 7 7 7 6 6 6 3 7 8 10 11 11 12 13 13 10 6 5 5 5 7 9 10 12 14 14 14 15 12 12 12 12 13 11 12 9 8
7 3 5 7 7 6 6 6 8 2 7 9 8 8 7 7 6 5 3 3 7 8 9 10 10 11 12 11 10 10 11 14 14 9 8 10 13 14 15 14 15 13 12 12 13 14 10 9 8
5 5 6 7 5 6 5 5 8 1 6 7 7 6 6 5 5 4 2 1 3 6 7 8 9 10 10 12 12 11 13 12 7 7 9 11 12 14 15 15 14 14 12 12 12 13 12 11 10
6 8 10 5 3 5 3 3 6 2 5 5 5 5 6 6 6 5 3 1 1 2 5 6 8 8 9 11 12 13 15 11 9 10 10 10 9 11 15 15 14 14 12 13 13 12 14 13 12
4 5 4 1 3 4 2 2 7 0 5 5 4 4 6 7 7 6 6 4 1 1 3 5 7 7 8 9 11 13 14 12 13 12 10 10 9 10 13 15 15 14 14 12 11 13 13 14 13
3 2 3 4 4 5 3 5 6 1 4 6 5 4 6 7 7 7 7 5 3 1 2 4 6 7 8 9 10 10 11 10 11 12 11 11 10 10 10 15 16 16 15 15 13 12 13 12 14
3 1 2 3 6 5 6 5 5 2 4 4 4 5 6 7 7 6 6 6 4 3 0 3 4 6 7 8 9 9 11 11 12 11 11 10 10 8 10 13 15 16 16 16 15 13 14 13 13
3 5 2 3 4 5 6 5 2 2 2 3 4 5 6 6 5 5 5 4 3 2 1 2 4 5 7 7 8 8 9 11 11 10 12 12 11 10 10 11 13 14 15 15 15 13 12 14 14
5 3 4 4 4 3 5 6 3 4 2 2 3 6 6 5 4 4 4 5 4 4 3 2 3 4 5 6 7 8 8 9 9 10 12 12 11 11 12 12 13 14 15 16 16 16 15 17 15
1 3 4 4 6 5 6 8 5 2 3 4 5 5 5 4 3 3 5 6 6 6 5 4 3 3 4 5 5 7 7 8 9 10 11 10 11 11 12 12 13 14 15 15 17 18 17 17 18
Wind_Direction
262 247 237 251 250 248 263 91 83 99 90 62 51 350 333 1 22 129 176 167 135 141 145 155 153 151 146 141 135 129 122 114 107 101 95 89 84 79 74 71 67 63 60 57 54 51 50 49 48
275 252 247 245 255 269 277 87 84 72 77 90 92 283 274 91 101 123 163 148 143 145 147 157 156 154 151 148 143 137 130 123 117 111 103 95 90 84 79 74 70 66 62 59 54 51 49 48 46
270 263 251 237 250 264 353 65 79 87 98 147 176 219 298 94 127 146 156 144 147 147 151 156 158 157 156 154 150 144 138 133 127 120 112 104 97 91 84 78 73 68 64 60 55 51 48 46 44
260 237 243 250 267 279 46 70 90 123 139 214 240 194 143 92 124 140 142 152 150 149 145 154 161 161 161 159 156 152 147 142 136 129 122 113 105 99 91 84 77 71 66 61 56 50 46 44 41
232 250 248 257 263 268 122 96 100 196 178 185 213 255 139 107 106 126 145 162 155 153 144 157 165 166 165 165 162 159 155 150 145 140 133 125 117 109 102 94 84 75 68 61 55 49 43 41 38
258 259 266 270 280 304 109 124 145 223 255 174 173 248 126 135 133 139 155 168 160 154 146 158 171 170 170 170 168 166 163 159 155 151 144 138 130 123 117 107 94 81 72 63 55 48 40 35 34
306 292 283 291 299 308 347 107 158 242 267 209 154 210 132 170 151 144 157 171 164 155 150 156 171 173 175 176 174 173 171 168 164 161 156 150 145 139 131 124 112 95 78 66 54 43 34 29 29
313 297 285 284 289 305 39 94 43 325 291 311 149 211 161 166 145 144 156 177 171 160 159 158 170 171 172 175 180 179 177 175 173 169 165 163 160 155 158 153 140 124 98 75 51 32 21 15 19
271 260 270 280 304 327 52 159 182 110 305 278 186 137 89 128 140 148 159 184 182 173 173 167 172 173 172 174 185 181 181 181 178 173 175 172 177 176 181 173 160 162 159 137 38 355 342 329 333
229 256 268 291 333 335 330 305 285 199 226 243 214 138 128 140 157 170 178 187 189 186 182 180 179 174 173 180 173 168 175 173 169 161 167 180 210 184 169 161 176 190 205 221 229 263 278 292 342
251 255 279 306 346 349 311 293 275 256 249 234 225 189 161 166 175 187 193 193 194 187 183 184 187 174 172 171 162 171 173 168 180 177 170 190 200 150 148 153 180 199 214 226 221 244 240 250 137
253 278 286 298 3 317 282 282 280 249 245 250 270 218 165 177 188 195 198 197 191 188 189 186 185 176 173 169 167 171 173 171 180 187 175 180 182 172 176 184 178 190 196 205 207 222 221 219 227
263 265 278 285 269 251 264 268 276 265 259 255 247 230 173 189 198 202 202 199 191 192 190 189 186 182 175 171 175 178 175 172 175 180 182 176 176 184 186 192 189 191 191 184 208 225 220 211 230
311 320 296 274 254 246 256 268 264 262 250 245 236 222 190 195 200 202 204 203 198 194 190 188 189 184 177 179 180 182 179 174 176 178 187 185 180 183 188 191 194 194 194 192 198 214 213 214 217
300 283 275 249 220 214 284 275 238 252 247 245 235 219 204 200 198 207 207 206 202 194 188 186 188 186 182 184 186 186 184 179 184 182 188 192 190 187 187 189 193 195 193 193 197 219 210 219 223
233 255 267 231 164 137 158 272 259 302 295 256 237 225 210 206 204 207 207 203 201 192 187 186 188 189 188 187 188 189 189 188 189 187 187 193 195 191 188 189 196 191 187 186 189 202 199 214 216
223 268 307 345 165 178 205 267 281 286 281 271 253 236 224 215 208 206 201 197 194 191 184 183 184 187 189 187 188 194 194 196 192 190 190 194 196 195 192 193 195 189 188 187 197 197 196 207 213
333 329 319 312 290 247 255 277 294 299 286 281 277 264 241 235 221 201 195 190 185 185 182 181 183 186 186 185 189 196 207 205 198 195 196 193 196 196 195 197 197 191 190 193 195 198 197 202 205
327 304 296 293 311 338 285 287 295 302 306 322 331 331 321 284 272 201 181 176 172 176 180 182 185 187 186 191 196 199 206 205 204 201 198 197 196 196 198 201 200 198 198 198 194 189 198 203 186
286 285 288 296 343 322 287 287 286 281 45 31 20 19 10 357 347 357 152 162 170 177 184 186 189 190 194 198 199 200 199 205 209 208 208 202 200 199 202 204 203 202 200 200 198 193 191 198 185
278 284 309 324 325 280 288 302 307 107 83 69 56 47 36 24 11 11 105 158 169 180 187 194 193 193 195 191 183 189 197 207 212 213 213 209 205 204 205 206 205 205 203 206 203 196 193 199 197
288 355 334 316 321 308 330 305 296 121 75 61 52 49 42 31 31 24 29 161 184 193 188 192 193 194 192 188 195 195 204 214 217 214 212 211 212 211 209 207 207 208 208 209 207 204 199 190 196
296 332 282 278 287 286 253 238 280 112 73 67 60 55 55 43 38 30 10 234 203 192 187 190 194 198 193 195 202 207 219 225 222 216 218 216 215 216 214 211 210 212 212 211 208 206 203 203 201
297 290 263 224 267 264 219 215 284 32 87 83 69 57 49 41 35 27 21 10 262 192 187 189 198 208 201 201 206 212 223 225 225 223 224 221 219 217 216 214 214 215 215 213 211 209 208 207 208
243 302 323 263 225 235 135 245 256 170 102 109 96 59 47 35 29 19 15 7 346 231 207 199 207 219 214 211 215 219 224 226 231 232 230 227 226 222 217 213 216 217 216 213 209 211 213 209 208
313 321 324 305 304 318 299 244 253 181 128 131 124 83 55 44 34 21 14 11 5 337 215 206 214 224 222 221 224 225 225 226 235 234 232 233 233 228 215 212 216 216 214 215 212 215 216 213 214
289 239 54 317 283 269 256 249 253 159 126 112 86 66 60 52 40 26 16 14 13 13 310 213 219 225 225 226 229 230 230 231 235 235 234 239 239 232 217 213 214 215 213 213 212 218 217 216 216
290 328 306 248 278 290 284 281 278 46 30 51 38 58 69 59 41 24 10 3 0 360 295 216 216 225 227 225 228 234 235 235 237 236 237 238 239 235 226 219 216 214 213 213 214 218 215 216 217
176 207 228 260 272 271 286 273 338 347 16 29 39 75 81 69 40 13 1 354 351 352 338 290 246 236 236 233 234 239 242 240 239 240 242 241 239 235 232 227 221 217 215 213 215 218 213 218 219
163 241 236 245 262 261 279 275 281 300 60 50 57 73 84 73 39 7 2 352 350 346 336 327 308 280 258 247 244 247 250 248 246 247 248 243 241 237 235 231 228 224 219 215 215 218 216 217 218